Randolph AFB, TX

10:13 AM CST on December 12, 2017 (GMT -0600)
Randolph Air Force Base

Weather History for KRND - March, 2013

Change the Weather History Date:

Thursday, March 21, 2013

  Actual Average Record
Temperature  
Mean Temperature 64 °F -  
Max Temperature 75 °F 70 °F 86 °F (1997)
Min Temperature 53 °F 51 °F 34 °F (2016)
Degree Days  
Heating Degree Days 1    
Growing Degree Days 14 (Base 50)    
Moisture  
Dew Point 53 °F    
Average Humidity 70    
Maximum Humidity 94    
Minimum Humidity 53    
Precipitation  
Precipitation 0.00 in - - ()
Sea Level Pressure  
Sea Level Pressure 29.81 in    
Wind  
Wind Speed 8 mph (South)    
Max Wind Speed 17 mph    
Max Gust Speed 24 mph    
Visibility 10 miles    
Events      
Averages and records for this station are not official NWS values.
T = Trace of Precipitation, MM = Missing Value Source: NWS Daily Summary

Daily Weather History Graph

Daily Weather History Graph

Search for Another Location

Airport or City:

Trip Planner

Search our weather history database for the weather conditions in past years. The results will help you decide how hot, cold, wet, or windy it might be!

Date:

Astronomy

Mar. 21, 2013 Rise Set
Actual Time 7:35 AM CDT 7:45 PM CDT
Civil Twilight 7:11 AM CDT 8:09 PM CDT
Nautical Twilight 6:43 AM CDT 8:36 PM CDT
Astronomical Twilight 6:16 AM CDT 9:04 PM CDT
Moon 2:37 PM CDT (3/21) 3:36 AM CDT (3/21)
Length of Visible Light 12h 57m
Length of Day
12h 09m
Waxing Gibbous, 69% of the Moon is Illuminated
Mar 21
Waxing Gibbous
Mar 27
Full
Apr 2
Last Quarter
Apr 10
New
Apr 18
First Quarter

Hourly Weather History & Observations

Time (CDT) Temp. Dew Point Humidity Pressure Visibility Wind Dir Wind Speed Gust Speed Precip Events Conditions
12:58 AM 55.0 °F 42.3 °F 62% 30.01 in 10.0 mi ESE 5.8 mph - N/A   Clear
1:58 AM 57.7 °F 44.6 °F 62% 30.00 in 10.0 mi SSE 4.6 mph - N/A   Overcast
2:58 AM 54.7 °F 43.5 °F 66% 29.98 in 10.0 mi South 4.6 mph - N/A   Mostly Cloudy
3:58 AM 56.8 °F 41.4 °F 56% 29.96 in 10.0 mi SSE 4.6 mph - N/A   Mostly Cloudy
4:55 AM 53.6 °F 41.0 °F 62% 29.94 in 10.0 mi South 4.6 mph - N/A   Mostly Cloudy
5:51 AM 55.4 °F 42.8 °F 63% 29.94 in 10.0 mi SSW 5.8 mph - N/A   Mostly Cloudy
5:58 AM 55.9 °F 42.6 °F 61% 29.92 in 10.0 mi SSW 5.8 mph - N/A   Mostly Cloudy
6:12 AM 55.4 °F 44.6 °F 67% 29.93 in 10.0 mi South 4.6 mph - N/A   Scattered Clouds
6:58 AM 55.4 °F 46.4 °F 72% 29.92 in 10.0 mi SSW 3.5 mph - N/A   Scattered Clouds
7:58 AM 54.3 °F 48.6 °F 81% 29.91 in 10.0 mi South 4.6 mph - N/A   Mostly Cloudy
8:07 AM 53.6 °F 48.2 °F 82% 29.91 in 10.0 mi South 4.6 mph - N/A   Mostly Cloudy
8:24 AM 55.4 °F 50.0 °F 82% 29.92 in 10.0 mi South 3.5 mph - N/A   Scattered Clouds
8:33 AM 55.4 °F 50.0 °F 82% 29.91 in 10.0 mi SSE 5.8 mph - N/A   Mostly Cloudy
8:58 AM 56.1 °F 50.4 °F 81% 29.90 in 10.0 mi South 5.8 mph - N/A   Overcast
9:58 AM 62.1 °F 56.1 °F 81% 29.90 in 10.0 mi South 15.0 mph - N/A   Mostly Cloudy
10:48 AM 66.2 °F 57.2 °F 73% 29.89 in 10.0 mi South 16.1 mph - N/A   Overcast
10:58 AM 66.0 °F 57.0 °F 73% 29.88 in 10.0 mi South 12.7 mph 19.6 mph N/A   Mostly Cloudy
11:58 AM 70.0 °F 55.9 °F 61% 29.84 in 10.0 mi South 17.3 mph 24.2 mph N/A   Mostly Cloudy
12:58 PM 72.3 °F 54.3 °F 53% 29.81 in 10.0 mi SSW 11.5 mph 21.9 mph N/A   Partly Cloudy
1:57 PM 72.9 °F 55.9 °F 55% 29.76 in 10.0 mi SSW 16.1 mph 24.2 mph N/A   Scattered Clouds
2:56 PM 73.0 °F 56.1 °F 55% 29.72 in 10.0 mi South 17.3 mph 21.9 mph N/A   Mostly Cloudy
3:55 PM 73.8 °F 56.7 °F 55% 29.68 in 10.0 mi South 16.1 mph 23.0 mph N/A   Mostly Cloudy
4:55 PM 75.2 °F 57.2 °F 53% 29.65 in 10.0 mi South 13.8 mph - N/A   Partly Cloudy
4:58 PM 74.8 °F 57.0 °F 54% 29.65 in 10.0 mi South 16.1 mph 21.9 mph N/A   Partly Cloudy
5:58 PM 74.5 °F 58.1 °F 57% 29.64 in 10.0 mi SSW 11.5 mph - N/A   Scattered Clouds
6:58 PM 74.3 °F 58.6 °F 58% 29.63 in 10.0 mi South 13.8 mph - N/A   Mostly Cloudy
7:58 PM 72.0 °F 58.8 °F 63% 29.64 in 10.0 mi South 15.0 mph - N/A   Mostly Cloudy
8:58 PM 70.3 °F 59.5 °F 69% 29.68 in 10.0 mi South 9.2 mph - N/A   Mostly Cloudy
9:58 PM 68.0 °F 60.1 °F 76% 29.68 in 10.0 mi South 12.7 mph - N/A   Scattered Clouds
10:58 PM 65.1 °F 61.5 °F 88% 29.69 in 10.0 mi South 10.4 mph - N/A   Partly Cloudy
11:12 PM 64.4 °F 62.6 °F 94% 29.69 in 10.0 mi South 12.7 mph - N/A   Mostly Cloudy
11:19 PM 64.4 °F 62.6 °F 94% 29.68 in 10.0 mi South 11.5 mph - N/A   Scattered Clouds
11:33 PM 64.4 °F 62.6 °F 94% 29.69 in 10.0 mi South 10.4 mph - N/A   Mostly Cloudy
11:58 PM 64.9 °F 63.0 °F 93% 29.69 in 10.0 mi South 10.4 mph - N/A   Overcast